Philip, SD

12:50 PM MDT on July 27, 2017 (GMT -0600)
Philip

Weather History for KPHP - September, 2012

Change the Weather History Date:

Sunday, September 2, 2012

  Actual Average Record
Temperature  
Mean Temperature 78 °F 68 °F  
Max Temperature 94 °F 84 °F 105 °F (1971)
Min Temperature 62 °F 53 °F 38 °F (1952)
Degree Days  
Heating Degree Days 0 2  
Month to date heating degree days 0 4  
Since 1 July heating degree days 5 29  
Cooling Degree Days 13 5  
Month to date cooling degree days 35 11  
Year to date cooling degree days 1146 746  
Growing Degree Days 30 (Base 50)    
Moisture  
Dew Point 47 °F    
Average Humidity 34    
Maximum Humidity 48    
Minimum Humidity 19    
Precipitation  
Precipitation T in 0.05 in 0.76 in (1999)
Month to date precipitation T 0.10  
Year to date precipitation 5.99 13.48  
Sea Level Pressure  
Sea Level Pressure 29.80 in    
Wind  
Wind Speed 10 mph (WNW)    
Max Wind Speed 28 mph    
Max Gust Speed 37 mph    
Visibility 10 miles    
Events Rain    
T = Trace of Precipitation, MM = Missing Value Source: NWS Daily Summary

Daily Weather History Graph

Daily Weather History Graph

Search for Another Location

Airport or City:

Trip Planner

Search our weather history database for the weather conditions in past years. The results will help you decide how hot, cold, wet, or windy it might be!

Date:

Astronomy

Sep. 02, 2012 Rise Set
Actual Time 6:11 AM MDT 7:19 PM MDT
Civil Twilight 5:41 AM MDT 7:49 PM MDT
Nautical Twilight 5:06 AM MDT 8:24 PM MDT
Astronomical Twilight 4:28 AM MDT 9:01 PM MDT
Moon 7:59 PM MDT (9/2) 8:29 AM MDT (9/2)
Length of Visible Light 14h 07m
Length of Day
13h 08m
Waning Gibbous, 95% of the Moon is Illuminated
Sep 2
Waning Gibbous
Sep 8
Last Quarter
Sep 15
New
Sep 22
First Quarter
Sep 29
Full

Hourly Weather History & Observations

Time (MDT) Temp. Dew Point Humidity Pressure Visibility Wind Dir Wind Speed Gust Speed Precip Events Conditions
12:55 AM 84.9 °F 37.9 °F 19% 29.69 in 10.0 mi SSW 15.0 mph - N/A   Clear
1:55 AM 87.1 °F 43.0 °F 21% 29.70 in 10.0 mi SSW 18.4 mph - N/A   Clear
2:55 AM 82.0 °F 46.9 °F 29% 29.70 in 10.0 mi WSW 10.4 mph - N/A   Clear
3:55 AM 79.0 °F 51.1 °F 38% 29.69 in 10.0 mi WSW 10.4 mph - 0.00 in Rain Light Rain
4:55 AM 82.0 °F 46.9 °F 29% 29.69 in 10.0 mi SW 11.5 mph - 0.00 in   Clear
5:55 AM 80.1 °F 46.0 °F 30% 29.73 in 10.0 mi West 11.5 mph - N/A   Clear
6:55 AM 77.0 °F 46.9 °F 34% 29.75 in 10.0 mi WSW 10.4 mph - N/A   Clear
7:55 AM 75.9 °F 48.9 °F 38% 29.78 in 10.0 mi West 17.3 mph 20.7 mph N/A   Clear
8:55 AM 78.1 °F 50.0 °F 37% 29.81 in 10.0 mi NW 16.1 mph - N/A   Clear
9:55 AM 82.0 °F 51.1 °F 34% 29.83 in 10.0 mi NNW 24.2 mph 34.5 mph N/A   Clear
10:55 AM 86.0 °F 48.9 °F 28% 29.84 in 10.0 mi NNW 21.9 mph 33.4 mph N/A   Clear
11:55 AM 88.0 °F 46.9 °F 24% 29.85 in 10.0 mi North 18.4 mph 23.0 mph N/A   Clear
12:55 PM 91.0 °F 46.9 °F 22% 29.84 in 10.0 mi NNW 15.0 mph - N/A   Clear
1:55 PM 91.0 °F 46.0 °F 21% 29.83 in 10.0 mi NNW 10.4 mph 20.7 mph N/A   Clear
2:55 PM 91.0 °F 46.9 °F 22% 29.82 in 10.0 mi Calm Calm - N/A   Clear
3:55 PM 93.9 °F 46.0 °F 19% 29.82 in 10.0 mi Variable 4.6 mph - N/A   Scattered Clouds
4:55 PM 93.0 °F 46.0 °F 20% 29.81 in 10.0 mi Variable 3.5 mph - N/A   Scattered Clouds
5:55 PM 91.0 °F 45.0 °F 20% 29.82 in 10.0 mi SW 5.8 mph - N/A   Scattered Clouds
6:55 PM 87.1 °F 46.9 °F 25% 29.83 in 10.0 mi Calm Calm - N/A   Clear
7:55 PM 81.0 °F 45.0 °F 28% 29.84 in 10.0 mi ENE 4.6 mph - N/A   Clear
8:55 PM 75.9 °F 45.0 °F 33% 29.86 in 10.0 mi ENE 4.6 mph - N/A   Clear
9:55 PM 71.1 °F 46.0 °F 41% 29.86 in 10.0 mi ENE 8.1 mph - N/A   Clear
10:55 PM 66.9 °F 46.0 °F 47% 29.86 in 10.0 mi East 6.9 mph - N/A   Clear
11:55 PM 66.0 °F 46.0 °F 48% 29.87 in 10.0 mi East 5.8 mph - N/A   Clear